Location: Unspecified
(0.0000°N, 0.0000°E)
Time: 01:26:26
(UTC+00:00)

deb Explorer IX - Pass Details

Date: 24 November 2019
Orbit: 546 x 1104 km, 38.8° (Epoch: 11 December)

Event Time Altitude Azimuth Distance (km) Brightness Sun altitude
Rises 20:14:59 0° 252° (WSW) 3,754 ? -34.3°
Reaches altitude 10° 20:17:58 10° 263° (W) 2,861 ? -35.0°
Enters shadow 20:23:35 29° 315° (NW) 1,863 ? -36.3°
Maximum altitude 20:23:58 30° 321° (NW) 1,860 - -36.4°
Drops below altitude 10° 20:30:10 10° 19° (NNE) 2,945 - -37.8°
Sets 20:33:19 0° 29° (NNE) 3,880 - -38.5°
